McAlester, OK

8:42 PM CDT on March 29, 2017 (GMT -0500)
McAlester Regional

Weather History for KMLC - January, 2013

Change the Weather History Date:

Tuesday, January 15, 2013

  Actual Average Record
Temperature  
Mean Temperature 30 °F -  
Max Temperature 36 °F 50 °F 72 °F (1990)
Min Temperature 23 °F 28 °F 9 °F (1972)
Degree Days  
Heating Degree Days 36    
Moisture  
Dew Point 21 °F    
Average Humidity 67    
Maximum Humidity 88    
Minimum Humidity 56    
Precipitation  
Precipitation 0.00 in - - ()
Sea Level Pressure  
Sea Level Pressure 30.25 in    
Wind  
Wind Speed 6 mph (North)    
Max Wind Speed 10 mph    
Max Gust Speed -    
Visibility 10 miles    
Events      
Averages and records for this station are not official NWS values.
T = Trace of Precipitation, MM = Missing Value Source: NWS Daily Summary

Daily Weather History Graph

Daily Weather History Graph

Search for Another Location

Airport or City:

Trip Planner

Search our weather history database for the weather conditions in past years. The results will help you decide how hot, cold, wet, or windy it might be!

Date:

Astronomy

Jan. 15, 2013 Rise Set
Actual Time 7:30 AM CST 5:35 PM CST
Civil Twilight 7:02 AM CST 6:02 PM CST
Nautical Twilight 6:31 AM CST 6:33 PM CST
Astronomical Twilight 6:01 AM CST 7:04 PM CST
Moon 9:48 AM CST (1/15) 10:12 PM CST (1/15)
Length of Visible Light 10h 59m
Length of Day
10h 05m
Waxing Crescent, 19% of the Moon is Illuminated
Jan 15
Waxing Crescent
Jan 18
First Quarter
Jan 26
Full
Feb 3
Last Quarter
Feb 10
New

Hourly Weather History & Observations

Time (CST) Temp. Windchill Dew Point Humidity Pressure Visibility Wind Dir Wind Speed Gust Speed Precip Events Conditions
12:53 AM 27.0 °F 19.5 °F 19.9 °F 75% 30.30 in 10.0 mi NNE 6.9 mph - N/A   Clear
1:53 AM 27.0 °F 23.0 °F 19.9 °F 75% 30.28 in 10.0 mi NE 3.5 mph - N/A   Clear
2:53 AM 26.1 °F 21.9 °F 19.9 °F 78% 30.28 in 10.0 mi NE 3.5 mph - N/A   Clear
3:53 AM 24.1 °F - 19.9 °F 84% 30.29 in 10.0 mi Calm Calm - N/A   Clear
4:53 AM 23.0 °F 17.0 °F 19.9 °F 88% 30.29 in 10.0 mi North 4.6 mph - N/A   Clear
5:53 AM 25.0 °F 15.5 °F 21.0 °F 85% 30.24 in 10.0 mi NNE 9.2 mph - N/A   Mostly Cloudy
6:53 AM 27.0 °F 20.5 °F 21.0 °F 78% 30.28 in 10.0 mi NNW 5.8 mph - N/A   Overcast
7:53 AM 27.0 °F 19.5 °F 19.9 °F 75% 30.30 in 10.0 mi NNE 6.9 mph - N/A   Overcast
8:53 AM 28.0 °F 22.8 °F 21.0 °F 75% 30.29 in 10.0 mi ENE 4.6 mph - N/A   Overcast
9:53 AM 30.0 °F - 21.9 °F 72% 30.30 in 10.0 mi Calm Calm - N/A   Overcast
10:53 AM 34.0 °F 28.8 °F 21.0 °F 59% 30.26 in 10.0 mi Variable 5.8 mph - N/A   Overcast
11:53 AM 35.1 °F 27.9 °F 21.9 °F 59% 30.22 in 10.0 mi North 9.2 mph - N/A   Overcast
12:53 PM 36.0 °F 28.5 °F 24.1 °F 62% 30.19 in 10.0 mi North 10.4 mph - N/A   Overcast
1:24 PM 35.6 °F 28.0 °F 23.0 °F 60% 30.16 in 10.0 mi NNE 10.4 mph - N/A   Overcast
1:34 PM 35.6 °F 28.6 °F 23.0 °F 60% 30.17 in 10.0 mi North 9.2 mph - N/A   Overcast
1:53 PM 35.1 °F 27.9 °F 21.9 °F 59% 30.19 in 10.0 mi NNW 9.2 mph - N/A   Overcast
2:53 PM 36.0 °F 28.5 °F 21.9 °F 57% 30.20 in 10.0 mi North 10.4 mph - N/A   Overcast
3:53 PM 36.0 °F 29.6 °F 23.0 °F 59% 30.22 in 10.0 mi North 8.1 mph - N/A   Overcast
4:53 PM 35.1 °F 27.9 °F 21.9 °F 59% 30.24 in 10.0 mi North 9.2 mph - N/A   Overcast
5:53 PM 34.0 °F 27.2 °F 21.0 °F 59% 30.25 in 10.0 mi NNW 8.1 mph - N/A   Overcast
6:53 PM 33.1 °F 26.9 °F 19.9 °F 59% 30.24 in 10.0 mi North 6.9 mph - N/A   Overcast
7:53 PM 33.1 °F 28.7 °F 19.0 °F 56% 30.24 in 10.0 mi North 4.6 mph - N/A   Overcast
8:53 PM 33.1 °F 27.7 °F 19.0 °F 56% 30.25 in 10.0 mi NNW 5.8 mph - N/A   Overcast
9:53 PM 30.9 °F 24.3 °F 18.0 °F 59% 30.24 in 10.0 mi NNW 6.9 mph - N/A   Overcast
10:53 PM 30.0 °F 24.1 °F 17.1 °F 59% 30.24 in 10.0 mi NNW 5.8 mph - N/A   Scattered Clouds
11:53 PM 27.0 °F - 16.0 °F 63% 30.23 in 10.0 mi Calm Calm - N/A   Clear